Roanoke Regional Airport Airport (ROA)

 

Airport Diagram
Current Weather/Forecast (VFR Conditions)
METAR KROA 250454Z 35005KT 10SM CLR 17/11 A2990 RMK AO2 SLP116 T01670106 402830167
TAF KROA 242339Z 2500/2524 35005KT P6SM FEW090 SCT200 FM250400 VRB03KT P6SM BKN200 FM251700 22006KT P6SM SCT070 BKN200 FM252200 18008KT P6SM BKN070 OVC200

All Charts
General
Chart Name Download
AIRPORT DIAGRAM
TAKEOFF MINIMUMS
ALTERNATE MINIMUMS
HOT SPOT

Departures
Chart Name Download
BUFIY TWO (RNAV)
DIXXY SEVEN
HOKEE THREE
MONAT TWO (RNAV)
SCUTA TWO (RNAV)

Approaches
Chart Name Download
ILS OR LOC RWY 34
RNAV (GPS) RWY 06
RNAV (GPS) RWY 24
RNAV (GPS) RWY 34
LDA Y RWY 06
LDA Z RWY 06
VOR/DME-A


Inbound Traffic (Arrivals)

No inbound traffic.


Outbound Traffic (Departures)

No outbound traffic.